Date String (YYYY-MM-DD hh:mm:ss) UTC,Instrument flags,Ambient pressure (hPa),Sample flow (lpm),Bypass flow (lpm),Sample temperature (°C),Ambient temperature (°C),ASC tube jacket temperature (°C),LED temperature (°C),Box temperature (°C),Sample RH (%),Span deviation,Mass concentration (μg/m³),Mass concentration (μg/m³),Mass concentration (μg/m³)
DateTimeUTC,F1_M11,P_M11,Q1_M11,Q2_M11,T1_M11,T2_M11,T3_M11,T4_M11,T5_M11,U1_M11,ZSPAN_M11,X0_M11,X2_M11,X1_M11
2022-08-16 16:00:00,,0832.5,5.00,0.00,32.6,29.3,00.0,40.6,32.9,34.8,0000.0,0007.85,0005.02,0004.59
2022-08-16 16:01:00,,0832.5,5.00,0.00,32.5,29.3,00.0,40.6,32.9,34.8,0000.0,0007.69,0004.91,0004.52
2022-08-16 16:02:00,,0832.5,4.99,0.00,32.5,29.3,00.0,40.6,32.9,35.0,0000.0,0007.90,0004.80,0004.46
2022-08-16 16:03:00,,0832.4,5.00,0.00,32.5,29.4,00.0,40.6,32.9,35.2,0000.0,0007.97,0004.77,0004.42
2022-08-16 16:04:00,,0832.5,5.01,0.00,32.7,29.4,00.0,40.6,33.1,34.8,0000.0,0007.85,0004.70,0004.36
2022-08-16 16:05:00,,0832.5,5.00,0.00,32.8,29.4,00.0,40.6,33.1,34.5,0000.0,0007.80,0004.66,0004.31
2022-08-16 16:06:00,,0832.5,5.00,0.00,32.9,29.1,00.0,40.6,33.0,34.4,0000.0,0007.84,0004.65,0004.28
2022-08-16 16:07:00,,0832.5,4.99,0.00,32.8,28.4,00.0,40.6,32.8,34.7,0000.0,0007.89,0004.68,0004.27
2022-08-16 16:08:00,,0832.5,5.00,0.00,32.7,28.1,00.0,40.6,32.7,34.8,0000.0,0007.85,0004.69,0004.29
2022-08-16 16:09:00,,0832.5,5.01,0.00,32.6,28.0,00.0,40.6,32.5,34.8,0000.0,0007.95,0004.77,0004.33
2022-08-16 16:10:00,,0832.5,5.01,0.00,32.5,28.1,00.0,40.6,32.5,34.9,0000.0,0008.06,0004.83,0004.36
2022-08-16 16:11:00,,0832.5,4.99,0.00,32.4,28.2,00.0,40.5,32.5,35.0,0000.0,0008.10,0004.88,0004.39
2022-08-16 16:12:00,,0832.5,4.99,0.00,32.4,28.3,00.0,40.5,32.6,35.2,0000.0,0008.24,0004.95,0004.43
2022-08-16 16:13:00,,0832.5,5.02,0.00,32.5,28.4,00.0,40.5,32.7,34.5,0000.0,0008.12,0005.04,0004.48
2022-08-16 16:14:00,,0832.6,4.99,0.00,32.6,28.5,00.0,40.5,32.7,34.2,0000.0,0008.03,0005.08,0004.52
2022-08-16 16:15:00,,0832.5,5.00,0.00,32.7,28.6,00.0,40.5,32.7,34.0,0000.0,0008.18,0005.18,0004.59
2022-08-16 16:16:00,,0832.6,5.01,0.00,32.6,28.7,00.0,40.5,32.7,34.0,0000.0,0008.36,0005.29,0004.65
2022-08-16 16:17:00,,0832.5,5.00,0.00,32.6,28.8,00.0,40.5,32.7,34.0,0000.0,0008.49,0005.36,0004.71
2022-08-16 16:18:00,,0832.6,5.00,0.00,32.5,28.9,00.0,40.5,32.7,34.1,0000.0,0008.44,0005.39,0004.77
2022-08-16 16:19:00,,0832.5,5.00,0.00,32.5,28.9,00.0,40.5,32.7,34.1,0000.0,0008.53,0005.45,0004.82
2022-08-16 16:20:00,,0832.5,5.00,0.00,32.4,29.0,00.0,40.6,32.7,34.3,0000.0,0008.69,0005.46,0004.83
2022-08-16 16:21:00,,0832.5,5.00,0.00,32.4,29.0,00.0,40.6,32.7,34.4,0000.0,0009.30,0005.50,0004.87
2022-08-16 16:22:00,,0832.5,5.00,0.00,32.3,29.1,00.0,40.5,32.7,34.4,0000.0,0009.36,0005.53,0004.90
2022-08-16 16:23:00,,0832.5,5.01,0.00,32.3,29.1,00.0,40.5,32.7,35.0,0000.0,0009.38,0005.57,0004.93
2022-08-16 16:24:00,,0832.5,4.99,0.00,32.3,29.2,00.0,40.5,32.8,34.4,0000.0,0009.37,0005.62,0004.97
2022-08-16 16:25:00,,0832.5,5.00,0.00,32.3,29.2,00.0,40.5,32.8,33.7,0000.0,0009.48,0005.66,0005.00
2022-08-16 16:26:00,,0832.5,5.00,0.00,32.3,29.2,00.0,40.5,32.8,33.4,0000.0,0009.48,0005.66,0005.01
2022-08-16 16:27:00,,0832.5,5.00,0.00,32.3,29.2,00.0,40.5,32.8,33.6,0000.0,0009.42,0005.63,0005.01
2022-08-16 16:28:00,,0832.6,5.00,0.00,32.3,29.3,00.0,40.5,32.8,33.8,0000.0,0009.59,0005.62,0005.00
2022-08-16 16:29:00,,0832.6,5.00,0.00,32.2,29.3,00.0,40.5,32.8,33.9,0000.0,0010.08,0005.64,0004.99
2022-08-16 16:30:00,,0832.5,5.00,0.00,32.2,29.3,00.0,40.5,32.8,34.1,0000.0,0010.09,0005.64,0004.99
2022-08-16 16:31:00,,0832.6,5.00,0.00,32.1,29.3,00.0,40.5,32.8,33.8,0000.0,0010.10,0005.64,0004.98
2022-08-16 16:32:00,,0832.6,5.00,0.00,32.1,29.4,00.0,40.5,32.8,33.5,0000.0,0009.32,0005.60,0004.95
2022-08-16 16:33:00,,0832.6,5.00,0.00,32.0,29.4,00.0,40.5,32.8,33.4,0000.0,0009.28,0005.56,0004.93
2022-08-16 16:34:00,,0832.6,5.01,0.00,32.0,28.9,00.0,40.4,32.6,33.4,0000.0,0009.26,0005.53,0004.90
2022-08-16 16:35:00,,0832.6,5.00,0.00,31.9,28.3,00.0,40.3,32.5,33.9,0000.0,0009.29,0005.51,0004.87
2022-08-16 16:36:00,,0832.6,4.99,0.00,31.8,28.0,00.0,40.3,32.4,34.5,0000.0,0009.39,0005.52,0004.86
2022-08-16 16:37:00,,0832.6,5.01,0.00,31.6,28.0,00.0,40.2,32.3,34.4,0000.0,0009.83,0005.51,0004.85
2022-08-16 16:38:00,,0832.5,5.00,0.00,31.5,28.1,00.0,40.2,32.2,35.5,0000.0,0009.99,0005.49,0004.82
2022-08-16 16:39:00,,0832.6,5.00,0.00,31.6,28.2,00.0,40.1,32.4,35.5,0000.0,0009.78,0005.44,0004.81
2022-08-16 16:40:00,,0832.6,4.99,0.00,31.9,28.3,00.0,40.1,32.5,34.8,0000.0,0009.15,0005.40,0004.79
2022-08-16 16:41:00,,0832.6,4.99,0.00,32.0,28.4,00.0,40.1,32.5,34.3,0000.0,0009.11,0005.36,0004.75
2022-08-16 16:42:00,,0832.6,5.00,0.00,32.1,28.5,00.0,40.1,32.5,33.7,0000.0,0009.06,0005.33,0004.72
2022-08-16 16:43:00,,0832.6,5.01,0.00,32.1,28.6,00.0,40.1,32.5,34.6,0000.0,0009.10,0005.34,0004.71
2022-08-16 16:44:00,,0832.6,4.99,0.00,32.0,28.7,00.0,40.1,32.5,34.3,0000.0,0009.25,0005.37,0004.69
2022-08-16 16:45:00,,0832.6,5.01,0.00,32.0,28.8,00.0,40.1,32.5,33.9,0000.0,0009.17,0005.33,0004.68
2022-08-16 16:46:00,,0832.6,5.00,0.00,32.0,28.9,00.0,40.1,32.5,33.5,0000.0,0009.09,0005.30,0004.67
2022-08-16 16:47:00,,0832.6,5.00,0.00,32.0,28.9,00.0,40.2,32.5,32.9,0000.0,0009.00,0005.28,0004.66
2022-08-16 16:48:00,,0832.6,5.00,0.00,31.9,29.0,00.0,40.2,32.5,33.1,0000.0,0008.67,0005.28,0004.66
2022-08-16 16:49:00,,0832.6,5.00,0.00,31.9,29.0,00.0,40.2,32.5,33.5,0000.0,0008.75,0005.29,0004.65
2022-08-16 16:50:00,,0832.6,5.00,0.00,31.8,29.1,00.0,40.2,32.5,33.4,0000.0,0008.81,0005.32,0004.65
2022-08-16 16:51:00,,0832.6,5.00,0.00,31.8,29.1,00.0,40.2,32.5,33.6,0000.0,0008.86,0005.34,0004.65
2022-08-16 16:52:00,,0832.6,5.00,0.00,31.8,29.2,00.0,40.2,32.5,34.2,0000.0,0008.78,0005.31,0004.66
2022-08-16 16:53:00,,0832.6,5.00,0.00,31.7,29.2,00.0,40.2,32.6,34.9,0000.0,0008.75,0005.31,0004.67
2022-08-16 16:54:00,,0832.6,4.99,0.00,31.8,29.2,00.0,40.2,32.7,34.7,0000.0,0008.73,0005.31,0004.69
2022-08-16 16:55:00,,0832.6,5.00,0.00,31.9,29.3,00.0,40.2,32.7,33.6,0000.0,0008.66,0005.29,0004.70
2022-08-16 16:56:00,,0832.7,5.00,0.00,31.9,29.3,00.0,40.2,32.7,33.4,0000.0,0008.69,0005.33,0004.70
2022-08-16 16:57:00,,0832.6,5.00,0.00,31.9,29.3,00.0,40.2,32.7,33.5,0000.0,0008.65,0005.33,0004.71
2022-08-16 16:58:00,,0832.6,5.00,0.00,31.9,29.2,00.0,40.2,32.7,34.0,0000.0,0008.57,0005.30,0004.70
2022-08-16 16:59:00,,0832.6,5.01,0.00,31.9,28.6,00.0,40.1,32.5,34.2,0000.0,0008.55,0005.30,0004.71
